sat.trackr.live / text

‹ back to catalog

STARLINK-4339

NORAD 53054 · 2022-077M

PAYLOAD ACTIVE UNKNOWN

§ Identity

Operator
Country
US
Launch date
2022-07-11
Launch site
AFWTR
Launch vehicle
Mass (kg)
RCS (m²)

Purposes: comms

External: N2YO · Heavens-Above · Gunter

§ Orbital elements

Epoch: 2026-09-20T02:10:05.318112Z

Period
93.91 min
Inclination
97.2851°
Eccentricity
0.0001210
Mean motion
15.33438034 rev/d
Perigee alt
464.7 km
Apogee alt
466.4 km
Semi-major
6,843.7 km
B*
1.7554e-5
RAAN
78.7927°
Arg perigee
118.8290°
Mean anomaly
241.3074°
Rev number
23,028

§ Raw data

STARLINK-43391 53054U 22077M   26263.09033933  .00000492  00000+0  17554-4 0  99942 53054  97.2851  78.7927 0001210 118.8290 241.3074 15.33438034230284

JSON: /api/v1/satellites/53054 · /tle

For live sub-satellite position, see the globe view (requires WebGL).

§ Visibility from observer

Set your observer location to see the next 7 days of passes ≥ 10°. The values pass through the URL so the page stays shareable.

No JS? Fill the form by hand. The geolocation button needs JavaScript.